Weather History for Twin Falls, ID

Change the Weather History Date:

Wednesday, November 21, 2012

  Actual Average Record
Temperature  
Mean Temperature 9 °C -  
Max Temperature 16 °C 8 °C 18 °C (2006)
Min Temperature 2 °C -4 °C -12 °C (1985)
Degree Days  
Heating Degree Days 17 30  
Month to date heating degree days 404 532  
Since 1 July heating degree days 836 1151  
Cooling Degree Days 0 0  
Month to date cooling degree days 0 0  
Year to date cooling degree days 970 680  
Moisture  
Dew Point 0 °C    
Average Humidity 53    
Maximum Humidity 70    
Minimum Humidity 35    
Precipitation  
Precipitation 0.51 mm 1.02 mm 0.63 mm (1998)
Month to date precipitation 0.47 0.76  
Year to date precipitation 7.85 9.01  
Sea Level Pressure  
Sea Level Pressure 1013 hPa    
Wind  
Wind Speed 27 km/h (SSW)    
Max Wind Speed 47 km/h    
Max Gust Speed 58 km/h    
Visibility 16 kilometers    
Events Rain    
T = Trace of Precipitation, MM = Missing Value Source: NWS Daily Summary

Daily Weather History Graph

Daily Weather History Graph

Search for Another Location

Airport:

Trip Planner

Search our weather history database for the weather conditions in past years. The results will help you decide how hot, cold, wet, or windy it might be!

Date:

Astronomy

Nov. 21, 2012 Rise Set
Actual Time 7:37 AM MST 5:10 PM MST
Civil Twilight 7:06 AM MST 5:41 PM MST
Nautical Twilight 6:31 AM MST 6:15 PM MST
Astronomical Twilight 5:58 AM MST 6:49 PM MST
Moon 1:36 PM MST (11/21) 12:52 AM MST (11/21)
Length of Visible Light 10h 35m
Length of Day
9h 33m
Waxing Gibbous, 62% of the Moon is Illuminated
Nov 21
Waxing Gibbous
Nov 28
Full
Dec 6
Last Quarter
Dec 13
New
Dec 19
First Quarter

Hourly Weather History & Observations

Time (MST) Temp. Windchill Dew Point Humidity Pressure Visibility Wind Dir Wind Speed Gust Speed Precip Events Conditions
12:53 AM 12.2 °C - -0.6 °C 41% 1008.4 hPa 16.1 km South 29.6 km/h / 8.2 m/s 48.2 km/h / 13.4 m/s N/A   Clear
1:53 AM 12.8 °C - -1.1 °C 38% 1007.7 hPa 16.1 km South 33.3 km/h / 9.3 m/s 48.2 km/h / 13.4 m/s N/A   Partly Cloudy
2:53 AM 12.8 °C - -1.1 °C 38% 1007.0 hPa 16.1 km South 38.9 km/h / 10.8 m/s 53.7 km/h / 14.9 m/s N/A   Clear
3:53 AM 12.2 °C - -1.1 °C 40% 1008.0 hPa 16.1 km South 35.2 km/h / 9.8 m/s 48.2 km/h / 13.4 m/s N/A   Clear
4:53 AM 12.2 °C - -1.7 °C 38% 1007.6 hPa 16.1 km South 33.3 km/h / 9.3 m/s 50.0 km/h / 13.9 m/s N/A   Mostly Cloudy
5:53 AM 12.2 °C - -1.7 °C 38% 1007.7 hPa 16.1 km South 27.8 km/h / 7.7 m/s 42.6 km/h / 11.8 m/s N/A   Clear
6:53 AM 12.8 °C - -1.7 °C 37% 1007.7 hPa 16.1 km South 27.8 km/h / 7.7 m/s - N/A   Overcast
7:53 AM 12.8 °C - -1.7 °C 37% 1008.6 hPa 16.1 km South 27.8 km/h / 7.7 m/s 44.4 km/h / 12.3 m/s N/A   Overcast
8:53 AM 11.1 °C - -0.6 °C 45% 1009.9 hPa 16.1 km South 20.4 km/h / 5.7 m/s 35.2 km/h / 9.8 m/s 0.0 mm   Overcast
9:53 AM 12.2 °C - -1.1 °C 40% 1009.7 hPa 16.1 km South 27.8 km/h / 7.7 m/s - N/A   Overcast
10:20 AM 11.0 °C - 1.0 °C 50% 1014.1 hPa 14.5 km SSW 22.2 km/h / 6.2 m/s - 0.3 mm Rain Light Rain
10:53 AM 11.1 °C - 2.8 °C 57% 1010.9 hPa 16.1 km South 20.4 km/h / 5.7 m/s - 0.3 mm   Overcast
11:53 AM 12.2 °C - 3.3 °C 55% 1010.5 hPa 16.1 km SSW 20.4 km/h / 5.7 m/s 35.2 km/h / 9.8 m/s 0.0 mm Rain Light Rain
12:53 PM 15.0 °C - 0.6 °C 38% 1009.4 hPa 16.1 km WSW 38.9 km/h / 10.8 m/s 57.4 km/h / 15.9 m/s 0.0 mm   Overcast
1:10 PM 11.0 °C - 3.0 °C 58% 1013.4 hPa 16.1 km WNW 33.3 km/h / 9.3 m/s 48.2 km/h / 13.4 m/s N/A   Overcast
1:53 PM 11.7 °C - 2.2 °C 52% 1011.0 hPa 16.1 km West 25.9 km/h / 7.2 m/s 42.6 km/h / 11.8 m/s N/A   Scattered Clouds
2:53 PM 9.4 °C - 2.8 °C 64% 1012.0 hPa 16.1 km West 31.5 km/h / 8.7 m/s - 0.3 mm   Overcast
3:19 PM 8.0 °C 3.9 °C 3.0 °C 71% 1015.5 hPa 16.1 km West 31.5 km/h / 8.7 m/s 42.6 km/h / 11.8 m/s N/A   Overcast
3:53 PM 7.2 °C 2.4 °C 1.7 °C 68% 1013.9 hPa 16.1 km West 37.0 km/h / 10.3 m/s 48.2 km/h / 13.4 m/s N/A   Overcast
4:17 PM 7.0 °C 2.1 °C -1.0 °C 57% 1017.2 hPa 16.1 km West 38.9 km/h / 10.8 m/s 55.6 km/h / 15.4 m/s N/A   Overcast
4:53 PM 5.0 °C 0.4 °C -0.6 °C 67% 1016.5 hPa 16.1 km West 25.9 km/h / 7.2 m/s 40.7 km/h / 11.3 m/s N/A   Overcast
5:53 PM 4.4 °C -0.3 °C -0.6 °C 70% 1017.8 hPa 16.1 km West 25.9 km/h / 7.2 m/s 38.9 km/h / 10.8 m/s 0.0 mm   Overcast
6:53 PM 3.9 °C -0.1 °C -0.6 °C 73% 1018.6 hPa 16.1 km SSW 18.5 km/h / 5.1 m/s - 0.0 mm Rain Light Rain
7:53 PM 3.9 °C -0.3 °C -0.6 °C 73% 1018.8 hPa 16.1 km South 20.4 km/h / 5.7 m/s - 0.0 mm   Overcast
8:53 PM 4.4 °C 0.3 °C -1.1 °C 68% 1020.3 hPa 16.1 km SSW 20.4 km/h / 5.7 m/s - N/A   Overcast
9:53 PM 3.9 °C -0.1 °C -1.7 °C 67% 1020.8 hPa 16.1 km SSW 18.5 km/h / 5.1 m/s 35.2 km/h / 9.8 m/s N/A   Mostly Cloudy
10:53 PM 3.3 °C -0.6 °C -2.2 °C 68% 1021.8 hPa 16.1 km SW 16.7 km/h / 4.6 m/s - N/A   Scattered Clouds
11:53 PM 2.2 °C -2.2 °C -2.8 °C 70% 1022.2 hPa 16.1 km SSW 18.5 km/h / 5.1 m/s - N/A   Clear